Regional Weather Roundup
Issued by NWS Charleston, WV

Home | Current Version | Previous Version | Graphics & Text | Print | Product List | Glossary On
Versions: 1 2 3 4 5 6 7 8 9 10 11 12 13 14 15 16 17 18 19 20 21 22 23 24 25 26 27
000
ASUS41 KRLX 191210
RWRRLX
West Virginia Regional Weather Roundup
National Weather Service Charleston WV
800 AM EDT SAT AUG 19 2017

Note: "fair" indicates few or no clouds below 12,000 feet with no
significant weather and/or obstructions to visibility.

WVZ003-191300-
Northern Panhandle of West Virginia

CITY           SKY/WX    TMP DP  RH WIND       PRES   REMARKS
WHEELING       CLOUDY    66  63  90 S5        29.95R
$$

WVZ009-191300-
Northwest West Virginia

CITY           SKY/WX    TMP DP  RH WIND       PRES   REMARKS
PARKERSBURG    CLOUDY    66  64  93 CALM      30.00R
$$

WVZ006-191300-
Western West Virginia

CITY           SKY/WX    TMP DP  RH WIND       PRES   REMARKS
HUNTINGTON     MOSUNNY   67  64  90 SW5       29.99R
$$

WVZ015-191300-
West Central West Virginia

CITY           SKY/WX    TMP DP  RH WIND       PRES   REMARKS
CHARLESTON     PTSUNNY   68  67  96 S3        30.00R
$$

WVZ022-031-191300-
North Central West Virginia

CITY           SKY/WX    TMP DP  RH WIND       PRES   REMARKS
CLARKSBURG     SUNNY     68  64  87 CALM      29.99R
MORGANTOWN     SUNNY     68  63  84 CALM      29.98R
$$

WVZ025-035-042-045-191300-
Southern West Virginia

CITY           SKY/WX    TMP DP  RH WIND       PRES   REMARKS
BECKLEY        SUNNY     65  63  93 SW3       30.06S
LOGAN          FOG       66  66 100 CALM      30.04R VSB<1/4
BLUEFIELD      SUNNY     63  61  93 W6        30.10R
LEWISBURG      FOG       61  61  99 CALM      30.05R VSB<1/4
$$

WVZ047-191300-
Northern Mountains of West Virginia

CITY           SKY/WX    TMP DP  RH WIND       PRES   REMARKS
ELKINS         MOSUNNY   65  62  90 CALM      30.03R
$$

WVZ052-191300-
Eastern Panhandle of West Virginia

CITY           SKY/WX    TMP DP  RH WIND       PRES   REMARKS
MARTINSBURG    SUNNY     72  65  78 S3        29.91R
PETERSBURG     MOSUNNY   67  66  96 CALM      29.97R
$$




USA.gov is the U.S. government's official web portal to all federal, state and local government web resources and services.